Location: Dal�� Lhota
(48.7500°N, 14.0167°E)
Time: 22:24:19
(UTC+00:00)

Meteor 1-24 Rocket - Pass Details

Date: 24 September 2020
Orbit: 790 x 927 km, 81.2° (Epoch: 24 October)

Event Time Altitude Azimuth Distance (km) Brightness Sun altitude
Rises 18:07:44 0° 353° (N) 3,375 7.1 -12.4°
Reaches altitude 10° 18:10:16 10° 1° (N) 2,457 6.3 -12.8°
Maximum altitude 18:15:30 40° 70° (ENE) 1,254 4.2 -13.7°
Enters shadow 18:19:31 17° 132° (SE) 2,075 5.2 -14.3°
